Location: Roanoke
(37.2710°N, 79.9420°W)
Time: 14:31:33
(UTC-05:00)

S-56A Canister/Altair - Pass Details

Date: 24 November 2019
Orbit: 632 x 2500 km, 38.9° (Epoch: 14 December)

Event Time Altitude Azimuth Distance (km) Brightness Sun altitude
Rises 17:34:56 0° 267° (W) 5,541 13.6 -6.4°
Reaches altitude 10° 17:39:01 10° 269° (W) 4,278 12.7 -7.1°
Maximum altitude 17:49:56 81° 357° (N) 1,383 8.8 -9.2°
Enters shadow 17:56:34 12° 85° (E) 2,708 9.7 -10.4°
Drops below altitude 10° 17:56:55 10° 85° (E) 2,824 - -10.5°
Sets 17:59:07 0° 86° (E) 3,591 - -10.9°
